| time (UTC) | temp C | wind direction | speed KPH | gust KPH | rain 1hr cm | rain 24hr cm | rain mn cm | humidity % | barometer mb |
| 20260902062905 | 23 | 206 | 0.0 | 0.0 | 0.00 | 0.00 | 0.00 | 80 | 1016.2 |
| 20260902062405 | 23 | 206 | 0.0 | 0.0 | 0.00 | 0.00 | 0.00 | 80 | 1016.2 |
| 20260902061905 | 23 | 206 | 0.0 | 0.0 | 0.00 | 0.00 | 0.00 | 80 | 1016.2 |
| 20260902061405 | 23 | 206 | 0.0 | 0.0 | 0.00 | 0.00 | 0.00 | 80 | 1016.2 |
| 20260902060905 | 23 | 206 | 0.0 | 0.0 | 0.00 | 0.00 | 0.00 | 80 | 1016.3 |
| 20260902060405 | 23 | 206 | 0.0 | 0.0 | 0.00 | 0.00 | 0.00 | 80 | 1016.3 |
| 20260902055905 | 23 | 206 | 0.0 | 0.0 | 0.00 | 0.00 | 0.00 | 80 | 1016.2 |
| 20260902055405 | 23 | 206 | 0.0 | 0.0 | 0.00 | 0.00 | 0.00 | 80 | 1016.2 |
| 20260902054904 | 23 | 206 | 0.0 | 0.0 | 0.00 | 0.00 | 0.00 | 79 | 1016.3 |
| 20260902054405 | 23 | 206 | 0.0 | 0.0 | 0.00 | 0.00 | 0.00 | 79 | 1016.3 |
| 20260902053905 | 23 | 206 | 0.0 | 0.0 | 0.00 | 0.00 | 0.00 | 79 | 1016.3 |
| 20260902052905 | 23 | 206 | 0.0 | 0.0 | 0.00 | 0.00 | 0.00 | 78 | 1016.2 |
| 20260902051405 | 24 | 206 | 0.0 | 0.0 | 0.00 | 0.00 | 0.00 | 78 | 1016.1 |
| 20260902050905 | 24 | 205 | 0.0 | 0.0 | 0.00 | 0.00 | 0.00 | 78 | 1016.1 |
| 20260902050405 | 24 | 205 | 0.0 | 0.0 | 0.00 | 0.00 | 0.00 | 79 | 1016.1 |
| 20260902044904 | 24 | 205 | 0.0 | 0.0 | 0.00 | 0.00 | 0.00 | 78 | 1015.9 |
| 20260902044405 | 24 | 205 | 0.0 | 0.0 | 0.00 | 0.00 | 0.00 | 78 | 1015.9 |
| 20260902043405 | 25 | 205 | 0.0 | 0.0 | 0.00 | 0.00 | 0.00 | 77 | 1015.9 |
| 20260902042905 | 25 | 205 | 0.0 | 0.0 | 0.00 | 0.00 | 0.00 | 77 | 1016.0 |
| 20260902042405 | 25 | 205 | 0.0 | 0.0 | 0.00 | 0.00 | 0.00 | 76 | 1016.1 |
| 20260902041404 | 25 | 205 | 0.0 | 0.0 | 0.00 | 0.00 | 0.00 | 75 | 1016.1 |
| 20260902040405 | 25 | 205 | 0.0 | 0.0 | 0.00 | 0.00 | 0.00 | 75 | 1016.2 |
| 20260902035905 | 25 | 205 | 0.0 | 0.0 | 0.00 | 0.00 | 0.00 | 74 | 1016.2 |
| 20260902035405 | 26 | 205 | 0.0 | 0.0 | 0.00 | 0.00 | 0.00 | 73 | 1016.2 |
| 20260902034405 | 26 | 205 | 0.0 | 0.0 | 0.00 | 0.00 | 0.00 | 73 | 1016.1 |
| 20260902033904 | 26 | 205 | 0.0 | 0.0 | 0.00 | 0.00 | 0.00 | 72 | 1016.1 |
| 20260902033405 | 26 | 205 | 0.0 | 0.0 | 0.00 | 0.00 | 0.00 | 72 | 1016.1 |
| 20260902032905 | 26 | 205 | 0.0 | 0.0 | 0.00 | 0.00 | 0.00 | 72 | 1016.2 |
| 20260902031905 | 26 | 205 | 0.0 | 0.0 | 0.00 | 0.00 | 0.00 | 71 | 1016.2 |
| 20260902031404 | 26 | 205 | 0.0 | 0.0 | 0.00 | 0.00 | 0.00 | 71 | 1016.2 |
| 20260902030905 | 27 | 205 | 0.0 | 0.0 | 0.00 | 0.00 | 0.00 | 70 | 1016.2 |
| 20260902030405 | 27 | 205 | 0.0 | 0.0 | 0.00 | 0.00 | 0.00 | 70 | 1016.1 |
| 20260902025904 | 27 | 205 | 0.0 | 0.0 | 0.00 | 0.00 | 0.00 | 70 | 1016.2 |
| 20260902025405 | 27 | 205 | 0.0 | 0.0 | 0.00 | 0.00 | 0.00 | 69 | 1016.2 |
| 20260902024904 | 27 | 205 | 0.0 | 0.0 | 0.00 | 0.00 | 0.00 | 68 | 1016.2 |
| 20260902024405 | 27 | 205 | 0.0 | 0.0 | 0.00 | 0.00 | 0.00 | 68 | 1016.2 |
| 20260902023904 | 27 | 205 | 0.0 | 0.0 | 0.00 | 0.00 | 0.00 | 68 | 1016.2 |
| 20260902023405 | 27 | 205 | 0.0 | 0.0 | 0.00 | 0.00 | 0.00 | 68 | 1016.1 |
| 20260902022905 | 27 | 205 | 0.0 | 0.0 | 0.00 | 0.00 | 0.00 | 67 | 1016.2 |
| 20260902020905 | 28 | 205 | 0.0 | 0.0 | 0.00 | 0.00 | 0.00 | 66 | 1016.0 |
| 20260902020405 | 28 | 205 | 0.0 | 0.0 | 0.00 | 0.00 | 0.00 | 65 | 1016.0 |
| 20260902015905 | 28 | 205 | 0.0 | 0.0 | 0.00 | 0.00 | 0.00 | 65 | 1015.9 |
| 20260902014405 | 29 | 205 | 0.0 | 0.0 | 0.00 | 0.00 | 0.00 | 63 | 1015.8 |
| 20260902013404 | 29 | 205 | 0.0 | 0.0 | 0.00 | 0.00 | 0.00 | 62 | 1015.7 |
| 20260902012905 | 29 | 205 | 0.0 | 0.0 | 0.00 | 0.00 | 0.00 | 62 | 1015.6 |
| 20260902012405 | 30 | 205 | 0.0 | 0.0 | 0.00 | 0.00 | 0.00 | 61 | 1015.6 |
| 20260902011904 | 30 | 205 | 0.0 | 0.0 | 0.00 | 0.00 | 0.00 | 60 | 1015.6 |
| 20260902010905 | 30 | 205 | 0.0 | 0.0 | 0.00 | 0.00 | 0.00 | 59 | 1015.6 |
| 20260902010404 | 30 | 205 | 0.0 | 0.0 | 0.00 | 0.00 | 0.00 | 58 | 1015.5 |
| 20260902005905 | 31 | 205 | 0.0 | 0.0 | 0.00 | 0.00 | 0.00 | 57 | 1015.4 |
| 20260902005404 | 31 | 205 | 0.0 | 0.0 | 0.00 | 0.00 | 0.00 | 56 | 1015.4 |
| 20260902004404 | 31 | 205 | 0.0 | 0.0 | 0.00 | 0.00 | 0.00 | 55 | 1015.5 |
| 20260902003904 | 31 | 205 | 0.0 | 0.0 | 0.00 | 0.00 | 0.00 | 54 | 1015.4 |
| 20260902003405 | 31 | 205 | 0.0 | 0.0 | 0.00 | 0.00 | 0.00 | 54 | 1015.4 |
| 20260902002905 | 32 | 206 | 0.0 | 0.0 | 0.00 | 0.00 | 0.00 | 53 | 1015.4 |
| 20260902002404 | 32 | 207 | 0.0 | 0.0 | 0.00 | 0.00 | 0.00 | 53 | 1015.3 |
| 20260902001904 | 32 | 207 | 0.0 | 0.0 | 0.00 | 0.00 | 0.00 | 52 | 1015.3 |
| 20260902001405 | 32 | 184 | 0.0 | 0.0 | 0.00 | 0.00 | 0.00 | 52 | 1015.3 |
| 20260902000904 | 32 | 184 | 0.0 | 0.0 | 0.00 | 0.00 | 0.00 | 51 | 1015.4 |
| 20260902000406 | 33 | 184 | 0.0 | 0.0 | 0.00 | 0.00 | 0.00 | 51 | 1015.4 |
| 20260901235405 | 33 | 206 | 3.2 | 8.0 | 0.00 | 0.00 | 0.00 | 48 | 1015.4 |
| 20260901234904 | 34 | 150 | 0.0 | 0.0 | 0.00 | 0.00 | 0.00 | 47 | 1015.4 |
| 20260901234404 | 34 | 227 | 0.0 | 0.0 | 0.00 | 0.00 | 0.00 | 47 | 1015.5 |
| 20260901233904 | 35 | 228 | 0.0 | 0.0 | 0.00 | 0.00 | 0.00 | 47 | 1015.6 |
| 20260901233405 | 35 | 229 | 0.0 | 0.0 | 0.00 | 0.00 | 0.00 | 46 | 1015.6 |
| 20260901232404 | 35 | 141 | 0.0 | 0.0 | 0.00 | 0.00 | 0.00 | 45 | 1015.5 |
| 20260901231905 | 34 | 197 | 1.6 | 11.3 | 0.00 | 0.00 | 0.00 | 45 | 1015.6 |
| 20260901231404 | 34 | 198 | 1.6 | 8.0 | 0.00 | 0.00 | 0.00 | 45 | 1015.6 |
| 20260901230904 | 34 | 191 | 0.0 | 9.7 | 0.00 | 0.00 | 0.00 | 45 | 1015.5 |
| 20260901230404 | 35 | 160 | 1.6 | 11.3 | 0.00 | 0.00 | 0.00 | 44 | 1015.5 |
| 20260901225904 | 35 | 198 | 3.2 | 11.3 | 0.00 | 0.00 | 0.00 | 44 | 1015.5 |
| 20260901225405 | 35 | 183 | 0.0 | 0.0 | 0.00 | 0.00 | 0.00 | 43 | 1015.6 |
| 20260901224905 | 35 | 207 | 1.6 | 11.3 | 0.00 | 0.00 | 0.00 | 43 | 1015.5 |
| 20260901223904 | 36 | 148 | 1.6 | 4.8 | 0.00 | 0.00 | 0.00 | 43 | 1015.4 |
| 20260901223405 | 36 | 148 | 1.6 | 4.8 | 0.00 | 0.00 | 0.00 | 42 | 1015.4 |
| 20260901222904 | 36 | 184 | 0.0 | 4.8 | 0.00 | 0.00 | 0.00 | 41 | 1015.3 |
| 20260901222404 | 37 | 186 | 1.6 | 11.3 | 0.00 | 0.00 | 0.00 | 41 | 1015.3 |
| 20260901221905 | 37 | 177 | 0.0 | 4.8 | 0.00 | 0.00 | 0.00 | 41 | 1015.3 |
| 20260901220904 | 37 | 164 | 1.6 | 16.1 | 0.00 | 0.00 | 0.00 | 42 | 1015.2 |
| 20260901220404 | 36 | 206 | 0.0 | 4.8 | 0.00 | 0.00 | 0.00 | 41 | 1015.2 |
| 20260901215905 | 36 | 187 | 0.0 | 3.2 | 0.00 | 0.00 | 0.00 | 42 | 1015.3 |
| 20260901215405 | 36 | 166 | 0.0 | 0.0 | 0.00 | 0.00 | 0.00 | 43 | 1015.1 |
| 20260901214905 | 36 | 169 | 0.0 | 0.0 | 0.00 | 0.00 | 0.00 | 41 | 1015.2 |
| 20260901214404 | 37 | 232 | 0.0 | 9.7 | 0.00 | 0.00 | 0.00 | 40 | 1015.2 |
| 20260901213904 | 37 | 143 | 1.6 | 9.7 | 0.00 | 0.00 | 0.00 | 40 | 1015.1 |
| 20260901213404 | 37 | 186 | 6.4 | 12.9 | 0.00 | 0.00 | 0.00 | 40 | 1015.2 |
| 20260901212904 | 37 | 206 | 0.0 | 4.8 | 0.00 | 0.00 | 0.00 | 41 | 1015.2 |
| 20260901212405 | 37 | 155 | 1.6 | 8.0 | 0.00 | 0.00 | 0.00 | 40 | 1015.2 |
| 20260901211904 | 37 | 177 | 3.2 | 8.0 | 0.00 | 0.00 | 0.00 | 39 | 1015.3 |
| 20260901211404 | 37 | 142 | 3.2 | 12.9 | 0.00 | 0.00 | 0.00 | 39 | 1015.2 |
| 20260901210904 | 38 | 159 | 0.0 | 4.8 | 0.00 | 0.00 | 0.00 | 38 | 1015.2 |
| 20260901210405 | 38 | 216 | 4.8 | 12.9 | 0.00 | 0.00 | 0.00 | 39 | 1015.3 |
| 20260901204904 | 38 | 159 | 1.6 | 12.9 | 0.00 | 0.00 | 0.00 | 39 | 1015.5 |
| 20260901204404 | 38 | 162 | 0.0 | 0.0 | 0.00 | 0.00 | 0.00 | 39 | 1015.6 |
| 20260901202905 | 38 | 199 | 0.0 | 4.8 | 0.00 | 0.00 | 0.00 | 40 | 1015.7 |
| 20260901202404 | 38 | 153 | 1.6 | 9.7 | 0.00 | 0.00 | 0.00 | 40 | 1015.7 |
| 20260901201904 | 38 | 207 | 0.0 | 8.0 | 0.00 | 0.00 | 0.00 | 40 | 1015.7 |
| 20260901200906 | 38 | 209 | 0.0 | 8.0 | 0.00 | 0.00 | 0.00 | 41 | 1015.7 |
| 20260901200404 | 37 | 222 | 0.0 | 8.0 | 0.00 | 0.00 | 0.00 | 40 | 1015.8 |
| 20260901195904 | 37 | 209 | 4.8 | 12.9 | 0.00 | 0.00 | 0.00 | 40 | 1015.8 |
| 20260901195405 | 37 | 222 | 1.6 | 11.3 | 0.00 | 0.00 | 0.00 | 39 | 1015.9 |
| 20260901194904 | 37 | 210 | 4.8 | 11.3 | 0.00 | 0.00 | 0.00 | 39 | 1015.9 |
| 20260901194405 | 37 | 175 | 1.6 | 4.8 | 0.00 | 0.00 | 0.00 | 39 | 1016.0 |
| 20260901193905 | 37 | 227 | 3.2 | 14.5 | 0.00 | 0.00 | 0.00 | 40 | 1016.0 |
| 20260901193409 | 37 | 215 | 0.0 | 0.0 | 0.00 | 0.00 | 0.00 | 40 | 1016.1 |
| 20260901192905 | 37 | 217 | 0.0 | 9.7 | 0.00 | 0.00 | 0.00 | 39 | 1016.2 |
| 20260901191904 | 37 | 181 | 0.0 | 9.7 | 0.00 | 0.00 | 0.00 | 42 | 1016.3 |
| 20260901191404 | 37 | 195 | 1.6 | 9.7 | 0.00 | 0.00 | 0.00 | 45 | 1016.4 |
| 20260901190904 | 36 | 229 | 8.0 | 12.9 | 0.00 | 0.00 | 0.00 | 43 | 1016.5 |
| 20260901185904 | 36 | 31 | 0.0 | 0.0 | 0.00 | 0.00 | 0.00 | 44 | 1016.6 |
| 20260901185404 | 36 | 295 | 0.0 | 0.0 | 0.00 | 0.00 | 0.00 | 43 | 1016.7 |
| 20260901184905 | 36 | 263 | 3.2 | 9.7 | 0.00 | 0.00 | 0.00 | 43 | 1016.7 |
| 20260901184404 | 36 | 280 | 4.8 | 12.9 | 0.00 | 0.00 | 0.00 | 42 | 1016.8 |
| 20260901183404 | 36 | 253 | 0.0 | 8.0 | 0.00 | 0.00 | 0.00 | 42 | 1016.9 |
| 20260901182404 | 36 | 222 | 0.0 | 14.5 | 0.00 | 0.00 | 0.00 | 46 | 1016.9 |
| 20260901181906 | 36 | 248 | 1.6 | 8.0 | 0.00 | 0.00 | 0.00 | 45 | 1017.0 |
| 20260901180904 | 35 | 236 | 4.8 | 11.3 | 0.00 | 0.00 | 0.00 | 47 | 1017.0 |
| 20260901180404 | 35 | 255 | 3.2 | 11.3 | 0.00 | 0.00 | 0.00 | 48 | 1017.2 |
| 20260901175904 | 35 | 276 | 1.6 | 9.7 | 0.00 | 0.00 | 0.00 | 47 | 1017.2 |
| 20260901175404 | 35 | 343 | 1.6 | 12.9 | 0.00 | 0.00 | 0.00 | 46 | 1017.2 |
| 20260901174404 | 35 | 266 | 1.6 | 9.7 | 0.00 | 0.00 | 0.00 | 47 | 1017.4 |
| 20260901173905 | 35 | 274 | 8.0 | 14.5 | 0.00 | 0.00 | 0.00 | 46 | 1017.4 |
| 20260901173404 | 35 | 289 | 1.6 | 9.7 | 0.00 | 0.00 | 0.00 | 46 | 1017.4 |
| 20260901172904 | 35 | 289 | 1.6 | 11.3 | 0.00 | 0.00 | 0.00 | 45 | 1017.4 |
| 20260901172404 | 35 | 283 | 4.8 | 9.7 | 0.00 | 0.00 | 0.00 | 46 | 1017.5 |
| 20260901171904 | 35 | 208 | 1.6 | 12.9 | 0.00 | 0.00 | 0.00 | 47 | 1017.5 |
| 20260901171404 | 35 | 253 | 0.0 | 9.7 | 0.00 | 0.00 | 0.00 | 47 | 1017.6 |
| 20260901170904 | 35 | 221 | 4.8 | 12.9 | 0.00 | 0.00 | 0.00 | 47 | 1017.7 |
| 20260901170404 | 35 | 300 | 6.4 | 12.9 | 0.00 | 0.00 | 0.00 | 48 | 1017.7 |
| 20260901165404 | 35 | 279 | 4.8 | 14.5 | 0.00 | 0.00 | 0.00 | 49 | 1017.8 |
| 20260901164404 | 34 | 232 | 3.2 | 19.3 | 0.00 | 0.00 | 0.00 | 50 | 1017.9 |
| 20260901163404 | 34 | 248 | 4.8 | 19.3 | 0.00 | 0.00 | 0.00 | 51 | 1018.1 |
| 20260901162904 | 34 | 268 | 1.6 | 12.9 | 0.00 | 0.00 | 0.00 | 51 | 1018.1 |
| 20260901162404 | 34 | 280 | 8.0 | 20.9 | 0.00 | 0.00 | 0.00 | 52 | 1018.2 |
| 20260901161904 | 33 | 260 | 4.8 | 19.3 | 0.00 | 0.00 | 0.00 | 52 | 1018.2 |
| 20260901161405 | 33 | 218 | 1.6 | 11.3 | 0.00 | 0.00 | 0.00 | 53 | 1018.2 |
| 20260901160905 | 33 | 273 | 3.2 | 16.1 | 0.00 | 0.00 | 0.00 | 54 | 1018.1 |
| 20260901160404 | 33 | 233 | 0.0 | 14.5 | 0.00 | 0.00 | 0.00 | 54 | 1018.1 |
| 20260901155904 | 33 | 253 | 1.6 | 11.3 | 0.00 | 0.00 | 0.00 | 55 | 1018.1 |
| 20260901155404 | 33 | 273 | 1.6 | 8.0 | 0.00 | 0.00 | 0.00 | 55 | 1018.2 |
| 20260901154404 | 32 | 214 | 4.8 | 11.3 | 0.00 | 0.00 | 0.00 | 56 | 1018.2 |
| 20260901153404 | 32 | 206 | 4.8 | 12.9 | 0.00 | 0.00 | 0.00 | 57 | 1018.3 |
| 20260901152904 | 32 | 284 | 3.2 | 11.3 | 0.00 | 0.00 | 0.00 | 58 | 1018.3 |
| 20260901152404 | 32 | 249 | 1.6 | 8.0 | 0.00 | 0.00 | 0.00 | 57 | 1018.4 |
| 20260901151903 | 32 | 234 | 4.8 | 12.9 | 0.00 | 0.00 | 0.00 | 57 | 1018.4 |
| 20260901151405 | 32 | 256 | 3.2 | 9.7 | 0.00 | 0.00 | 0.00 | 58 | 1018.4 |
| 20260901150904 | 31 | 268 | 6.4 | 16.1 | 0.00 | 0.00 | 0.00 | 60 | 1018.4 |
| 20260901150404 | 31 | 197 | 1.6 | 9.7 | 0.00 | 0.00 | 0.00 | 61 | 1018.4 |
| 20260901145904 | 31 | 236 | 1.6 | 8.0 | 0.00 | 0.00 | 0.00 | 61 | 1018.4 |
| 20260901145404 | 30 | 219 | 1.6 | 11.3 | 0.00 | 0.00 | 0.00 | 63 | 1018.4 |
| 20260901143904 | 30 | 249 | 3.2 | 9.7 | 0.00 | 0.00 | 0.00 | 65 | 1018.4 |
| 20260901143404 | 29 | 274 | 4.8 | 11.3 | 0.00 | 0.00 | 0.00 | 65 | 1018.4 |
| 20260901142404 | 28 | 224 | 0.0 | 9.7 | 0.00 | 0.00 | 0.00 | 69 | 1018.4 |
| 20260901141904 | 28 | 219 | 0.0 | 0.0 | 0.00 | 0.00 | 0.00 | 71 | 1018.4 |
| 20260901141403 | 28 | 219 | 0.0 | 0.0 | 0.00 | 0.00 | 0.00 | 70 | 1018.4 |
| 20260901140904 | 28 | 197 | 0.0 | 0.0 | 0.00 | 0.00 | 0.00 | 71 | 1018.5 |
| 20260901140403 | 27 | 202 | 0.0 | 0.0 | 0.00 | 0.00 | 0.00 | 73 | 1018.4 |
| 20260901135904 | 27 | 257 | 0.0 | 0.0 | 0.00 | 0.00 | 0.00 | 75 | 1018.4 |
| 20260901135404 | 26 | 215 | 0.0 | 0.0 | 0.00 | 0.00 | 0.00 | 77 | 1018.4 |
| 20260901134904 | 26 | 179 | 0.0 | 0.0 | 0.00 | 0.00 | 0.00 | 79 | 1018.4 |
| 20260901134404 | 26 | 188 | 0.0 | 3.2 | 0.00 | 0.00 | 0.00 | 80 | 1018.4 |
| 20260901133904 | 25 | 173 | 3.2 | 8.0 | 0.00 | 0.00 | 0.00 | 81 | 1018.4 |
| 20260901133404 | 25 | 190 | 0.0 | 0.0 | 0.00 | 0.00 | 0.00 | 82 | 1018.5 |
| 20260901132904 | 25 | 192 | 0.0 | 0.0 | 0.00 | 0.00 | 0.00 | 82 | 1018.5 |
| 20260901132404 | 24 | 192 | 0.0 | 0.0 | 0.00 | 0.00 | 0.00 | 82 | 1018.5 |
| 20260901131904 | 24 | 200 | 0.0 | 0.0 | 0.00 | 0.00 | 0.00 | 82 | 1018.5 |
| 20260901131404 | 23 | 200 | 0.0 | 0.0 | 0.00 | 0.00 | 0.00 | 82 | 1018.6 |
| 20260901130904 | 23 | 199 | 0.0 | 0.0 | 0.00 | 0.00 | 0.00 | 82 | 1018.5 |
| 20260901130404 | 23 | 199 | 0.0 | 0.0 | 0.00 | 0.00 | 0.00 | 82 | 1018.5 |
| 20260901125904 | 23 | 200 | 0.0 | 0.0 | 0.00 | 0.00 | 0.00 | 82 | 1018.4 |
| 20260901125404 | 22 | 200 | 0.0 | 0.0 | 0.00 | 0.00 | 0.00 | 82 | 1018.5 |
| 20260901124904 | 22 | 200 | 0.0 | 0.0 | 0.00 | 0.00 | 0.00 | 82 | 1018.5 |
| 20260901124403 | 22 | 201 | 0.0 | 0.0 | 0.00 | 0.00 | 0.00 | 82 | 1018.5 |
| 20260901123904 | 22 | 201 | 0.0 | 0.0 | 0.00 | 0.00 | 0.00 | 82 | 1018.5 |
| 20260901123404 | 21 | 201 | 0.0 | 0.0 | 0.00 | 0.00 | 0.00 | 82 | 1018.5 |
| 20260901122904 | 21 | 201 | 0.0 | 0.0 | 0.00 | 0.00 | 0.00 | 82 | 1018.5 |
| 20260901122403 | 21 | 200 | 0.0 | 0.0 | 0.00 | 0.00 | 0.00 | 82 | 1018.5 |
| 20260901121904 | 21 | 205 | 0.0 | 0.0 | 0.00 | 0.00 | 0.00 | 82 | 1018.5 |
| 20260901121404 | 21 | 204 | 0.0 | 0.0 | 0.00 | 0.00 | 0.00 | 82 | 1018.4 |
| 20260901120904 | 21 | 204 | 0.0 | 0.0 | 0.00 | 0.00 | 0.00 | 82 | 1018.3 |
| 20260901120403 | 21 | 204 | 0.0 | 0.0 | 0.00 | 0.00 | 0.00 | 82 | 1018.2 |
| 20260901115904 | 20 | 205 | 0.0 | 0.0 | 0.00 | 0.00 | 0.00 | 82 | 1018.2 |
| 20260901115404 | 20 | 204 | 0.0 | 0.0 | 0.00 | 0.00 | 0.00 | 82 | 1018.2 |
| 20260901114904 | 20 | 204 | 0.0 | 0.0 | 0.00 | 0.00 | 0.00 | 82 | 1018.1 |
| 20260901114403 | 20 | 205 | 0.0 | 0.0 | 0.00 | 0.00 | 0.00 | 82 | 1018.0 |
| 20260901113903 | 20 | 204 | 0.0 | 0.0 | 0.00 | 0.00 | 0.00 | 82 | 1017.9 |
| 20260901113404 | 20 | 204 | 0.0 | 0.0 | 0.00 | 0.00 | 0.00 | 82 | 1017.8 |
| 20260901112904 | 20 | 204 | 0.0 | 0.0 | 0.00 | 0.00 | 0.00 | 82 | 1017.7 |
| 20260901112403 | 20 | 205 | 0.0 | 0.0 | 0.00 | 0.00 | 0.00 | 82 | 1017.6 |
| 20260901111903 | 20 | 204 | 0.0 | 0.0 | 0.00 | 0.00 | 0.00 | 82 | 1017.5 |
| 20260901111404 | 20 | 204 | 0.0 | 0.0 | 0.00 | 0.00 | 0.00 | 82 | 1017.5 |
| 20260901110904 | 21 | 205 | 0.0 | 0.0 | 0.00 | 0.00 | 0.00 | 82 | 1017.5 |
| 20260901105904 | 21 | 204 | 0.0 | 0.0 | 0.00 | 0.00 | 0.00 | 82 | 1017.4 |
| 20260901105403 | 21 | 204 | 0.0 | 0.0 | 0.00 | 0.00 | 0.00 | 82 | 1017.4 |
| 20260901103904 | 21 | 205 | 0.0 | 0.0 | 0.00 | 0.00 | 0.00 | 82 | 1017.4 |
| 20260901103403 | 21 | 205 | 0.0 | 0.0 | 0.00 | 0.00 | 0.00 | 82 | 1017.4 |
| 20260901102904 | 21 | 205 | 0.0 | 0.0 | 0.00 | 0.00 | 0.00 | 82 | 1017.4 |
| 20260901101403 | 21 | 205 | 0.0 | 0.0 | 0.00 | 0.00 | 0.00 | 82 | 1017.2 |
| 20260901100904 | 21 | 205 | 0.0 | 0.0 | 0.00 | 0.00 | 0.00 | 82 | 1017.1 |
| 20260901100403 | 21 | 205 | 0.0 | 0.0 | 0.00 | 0.00 | 0.00 | 82 | 1017.1 |
| 20260901095904 | 21 | 205 | 0.0 | 0.0 | 0.00 | 0.00 | 0.00 | 82 | 1017.1 |
| 20260901095404 | 21 | 205 | 0.0 | 0.0 | 0.00 | 0.00 | 0.00 | 82 | 1017.1 |
| 20260901094404 | 21 | 205 | 0.0 | 0.0 | 0.00 | 0.00 | 0.00 | 82 | 1017.0 |
| 20260901093903 | 21 | 205 | 0.0 | 0.0 | 0.00 | 0.00 | 0.00 | 82 | 1017.0 |
| 20260901093404 | 21 | 205 | 0.0 | 0.0 | 0.00 | 0.00 | 0.00 | 82 | 1017.0 |
| 20260901092903 | 21 | 205 | 0.0 | 0.0 | 0.00 | 0.00 | 0.00 | 82 | 1016.9 |
| 20260901092404 | 21 | 205 | 0.0 | 0.0 | 0.00 | 0.00 | 0.00 | 82 | 1016.9 |
| 20260901091903 | 21 | 205 | 0.0 | 0.0 | 0.00 | 0.00 | 0.00 | 82 | 1017.0 |
| 20260901091403 | 21 | 205 | 0.0 | 0.0 | 0.00 | 0.00 | 0.00 | 82 | 1016.9 |
| 20260901090905 | 21 | 205 | 0.0 | 0.0 | 0.00 | 0.00 | 0.00 | 82 | 1016.9 |
| 20260901090405 | 21 | 205 | 0.0 | 0.0 | 0.00 | 0.00 | 0.00 | 81 | 1016.8 |
| 20260901085405 | 21 | 205 | 0.0 | 0.0 | 0.00 | 0.00 | 0.00 | 81 | 1016.8 |
| 20260901084906 | 21 | 205 | 0.0 | 0.0 | 0.00 | 0.00 | 0.00 | 81 | 1016.7 |
| 20260901084405 | 21 | 205 | 0.0 | 0.0 | 0.00 | 0.00 | 0.00 | 81 | 1016.7 |
| 20260901083905 | 21 | 205 | 0.0 | 0.0 | 0.00 | 0.00 | 0.00 | 81 | 1016.7 |
| 20260901082405 | 21 | 205 | 0.0 | 0.0 | 0.00 | 0.00 | 0.00 | 82 | 1016.6 |
| 20260901081905 | 21 | 205 | 0.0 | 0.0 | 0.00 | 0.00 | 0.00 | 82 | 1016.7 |
| 20260901080906 | 21 | 205 | 0.0 | 0.0 | 0.00 | 0.00 | 0.00 | 82 | 1016.6 |
| 20260901080405 | 22 | 205 | 0.0 | 0.0 | 0.00 | 0.00 | 0.00 | 81 | 1016.6 |
| 20260901075905 | 22 | 205 | 0.0 | 0.0 | 0.00 | 0.00 | 0.00 | 81 | 1016.6 |
| 20260901074905 | 22 | 205 | 0.0 | 0.0 | 0.00 | 0.00 | 0.00 | 81 | 1016.6 |
| 20260901074406 | 22 | 205 | 0.0 | 0.0 | 0.00 | 0.00 | 0.00 | 81 | 1016.6 |
| 20260901073905 | 22 | 205 | 0.0 | 0.0 | 0.00 | 0.00 | 0.00 | 81 | 1016.4 |
| 20260901073405 | 21 | 205 | 0.0 | 0.0 | 0.00 | 0.00 | 0.00 | 81 | 1016.5 |
| 20260901072405 | 21 | 205 | 0.0 | 0.0 | 0.00 | 0.00 | 0.00 | 81 | 1016.5 |
| 20260901071905 | 21 | 205 | 0.0 | 0.0 | 0.00 | 0.00 | 0.00 | 81 | 1016.6 |
| 20260901071405 | 22 | 205 | 0.0 | 0.0 | 0.00 | 0.00 | 0.00 | 80 | 1016.6 |
| 20260901070905 | 22 | 205 | 0.0 | 0.0 | 0.00 | 0.00 | 0.00 | 80 | 1016.6 |
| 20260901070405 | 22 | 205 | 0.0 | 0.0 | 0.00 | 0.00 | 0.00 | 80 | 1016.6 |
| 20260901065905 | 22 | 205 | 0.0 | 0.0 | 0.00 | 0.00 | 0.00 | 80 | 1016.6 |
| 20260901065405 | 22 | 205 | 0.0 | 0.0 | 0.00 | 0.00 | 0.00 | 80 | 1016.6 |
| 20260901064905 | 22 | 205 | 0.0 | 0.0 | 0.00 | 0.00 | 0.00 | 80 | 1016.7 |
| 20260901064405 | 22 | 205 | 0.0 | 0.0 | 0.00 | 0.00 | 0.00 | 79 | 1016.7 |
| 20260901063404 | 22 | 205 | 0.0 | 0.0 | 0.00 | 0.00 | 0.00 | 79 | 1016.7 |